Location: La Sioule Rivi�re
(46.3664°N, 3.3197°E)
Time: 12:28:46
(UTC+00:00)

Cosmos 1076 Rocket - Pass Details

Date: 29 October 2020
Orbit: 589 x 613 km, 82.5° (Epoch: 23 November)

Event Time Altitude Azimuth Distance (km) Brightness Sun altitude
Rises 18:27:01 0° 350° (N) 2,834 7.1 -19.7°
Reaches altitude 10° 18:29:14 10° 350° (N) 1,929 6.2 -20.0°
Maximum altitude 18:33:29 86° 266° (W) 600 3.4 -20.8°
Drops below altitude 10° 18:37:44 10° 174° (S) 1,920 6.0 -21.5°
Sets 18:39:56 0° 174° (S) 2,820 6.9 -21.9°
